Time,TemperatureF,DewpointF,PressureIn,WindDirection,WindDirectionDegrees,WindSpeedMPH,WindSpeedGustMPH,Humidity,HourlyPrecipIn,Conditions,Clouds,dailyrainin,SoftwareType,DateUTC
2013-09-13 00:00:00,62.3,62.0,29.68,ESE,115,1.0,1.0,99,0.01,,,0.61,weatherlink.com 1.10,2013-09-13 04:00:00,
2013-09-13 00:15:00,62.3,62.0,29.67,ESE,115,0.0,1.0,99,0.01,,,0.00,weatherlink.com 1.10,2013-09-13 04:15:00,
2013-09-13 00:30:00,62.2,62.0,29.67,ESE,115,2.0,2.0,99,0.01,,,0.00,weatherlink.com 1.10,2013-09-13 04:30:00,
2013-09-13 00:45:00,62.1,62.0,29.66,ESE,115,0.0,2.0,99,0.00,,,0.00,weatherlink.com 1.10,2013-09-13 04:45:00,
2013-09-13 01:00:00,62.0,62.0,29.67,ESE,115,1.0,2.0,99,0.00,,,0.00,weatherlink.com 1.10,2013-09-13 05:00:00,
2013-09-13 01:15:00,61.8,62.0,29.66,ESE,115,1.0,2.0,99,0.00,,,0.00,weatherlink.com 1.10,2013-09-13 05:15:00,
2013-09-13 01:30:00,61.7,62.0,29.66,ESE,117,0.0,3.0,99,0.00,,,0.00,weatherlink.com 1.10,2013-09-13 05:30:00,
2013-09-13 01:45:00,61.6,61.0,29.66,ESE,117,0.0,3.0,99,0.00,,,0.00,weatherlink.com 1.10,2013-09-13 05:45:00,
2013-09-13 02:00:00,61.7,62.0,29.65,South,179,0.0,2.0,100,0.01,,,0.01,weatherlink.com 1.10,2013-09-13 06:00:00,
2013-09-13 02:15:00,61.7,62.0,29.65,SE,128,2.0,3.0,100,0.01,,,0.01,weatherlink.com 1.10,2013-09-13 06:15:00,
2013-09-13 02:30:00,61.7,62.0,29.64,SSE,148,1.0,1.0,100,0.01,,,0.01,weatherlink.com 1.10,2013-09-13 06:30:00,
2013-09-13 02:45:00,61.5,62.0,29.64,ESE,122,1.0,2.0,100,0.01,,,0.01,weatherlink.com 1.10,2013-09-13 06:45:00,
2013-09-13 03:00:00,61.7,62.0,29.64,ESE,122,1.0,2.0,100,0.00,,,0.01,weatherlink.com 1.10,2013-09-13 07:00:00,
2013-09-13 03:15:00,61.6,62.0,29.63,SSW,208,2.0,5.0,100,0.01,,,0.02,weatherlink.com 1.10,2013-09-13 07:15:00,
2013-09-13 03:30:00,61.6,62.0,29.62,SW,232,1.0,2.0,100,0.01,,,0.02,weatherlink.com 1.10,2013-09-13 07:30:00,
2013-09-13 03:45:00,61.8,62.0,29.62,SW,215,2.0,3.0,100,0.01,,,0.02,weatherlink.com 1.10,2013-09-13 07:45:00,
2013-09-13 04:00:00,61.8,62.0,29.62,SW,215,0.0,2.0,100,0.01,,,0.02,weatherlink.com 1.10,2013-09-13 08:00:00,
2013-09-13 04:15:00,61.8,62.0,29.62,SW,215,0.0,2.0,100,0.00,,,0.02,weatherlink.com 1.10,2013-09-13 08:15:00,
2013-09-13 04:30:00,61.6,62.0,29.63,North,349,1.0,3.0,100,0.00,,,0.02,weatherlink.com 1.10,2013-09-13 08:30:00,
2013-09-13 04:46:00,61.0,61.0,29.64,NW,308,0.0,5.0,98,0.00,,,0.02,weatherlink.com 1.10,2013-09-13 08:46:00,
2013-09-13 05:00:00,60.9,60.0,29.63,ESE,102,3.0,5.0,97,0.00,,,0.02,weatherlink.com 1.10,2013-09-13 09:00:00,
2013-09-13 05:15:00,60.4,60.0,29.64,NNE,25,0.0,5.0,99,0.00,,,0.02,weatherlink.com 1.10,2013-09-13 09:15:00,
2013-09-13 05:30:00,60.3,60.0,29.64,East,101,1.0,2.0,99,0.00,,,0.02,weatherlink.com 1.10,2013-09-13 09:30:00,
2013-09-13 06:00:00,60.4,60.0,29.65,East,82,2.0,7.0,97,0.00,,,0.02,weatherlink.com 1.10,2013-09-13 10:00:00,
2013-09-13 06:15:00,60.4,59.0,29.64,East,84,5.0,8.0,95,0.00,,,0.02,weatherlink.com 1.10,2013-09-13 10:15:00,
2013-09-13 06:30:00,59.9,59.0,29.65,ESE,102,3.0,5.0,96,0.00,,,0.02,weatherlink.com 1.10,2013-09-13 10:30:00,
2013-09-13 06:45:00,59.3,59.0,29.65,NW,307,1.0,3.0,98,0.00,,,0.02,weatherlink.com 1.10,2013-09-13 10:45:00,
2013-09-13 07:00:00,59.0,59.0,29.66,ENE,68,0.0,2.0,98,0.00,,,0.02,weatherlink.com 1.10,2013-09-13 11:00:00,
2013-09-13 07:15:00,58.9,59.0,29.66,ENE,68,0.0,2.0,99,0.00,,,0.02,weatherlink.com 1.10,2013-09-13 11:15:00,
2013-09-13 07:30:00,59.1,59.0,29.66,ENE,75,1.0,2.0,99,0.00,,,0.02,weatherlink.com 1.10,2013-09-13 11:30:00,
2013-09-13 07:45:00,59.4,59.0,29.66,ESE,102,0.0,5.0,99,0.00,,,0.02,weatherlink.com 1.10,2013-09-13 11:45:00,
2013-09-13 08:00:00,59.1,59.0,29.65,NW,311,1.0,3.0,98,0.00,,,0.02,weatherlink.com 1.10,2013-09-13 12:00:00,
2013-09-13 08:16:00,58.9,58.0,29.65,NNE,15,0.0,3.0,98,0.00,,,0.02,weatherlink.com 1.10,2013-09-13 12:16:00,
2013-09-13 08:31:00,59.6,59.0,29.64,West,273,3.0,4.0,98,0.00,,,0.02,weatherlink.com 1.10,2013-09-13 12:31:00,
2013-09-13 08:46:00,61.1,60.0,29.64,South,173,1.0,5.0,96,0.00,,,0.02,weatherlink.com 1.10,2013-09-13 12:46:00,
2013-09-13 09:01:00,61.4,59.0,29.65,SSW,200,1.0,3.0,92,0.00,,,0.02,weatherlink.com 1.10,2013-09-13 13:01:00,
2013-09-13 09:16:00,61.8,60.0,29.66,WNW,302,1.0,3.0,95,0.00,,,0.02,weatherlink.com 1.10,2013-09-13 13:16:00,
2013-09-13 09:31:00,61.6,59.0,29.66,East,83,2.0,6.0,91,0.00,,,0.02,weatherlink.com 1.10,2013-09-13 13:31:00,
2013-09-13 09:46:00,61.7,59.0,29.66,East,94,3.0,7.0,90,0.00,,,0.02,weatherlink.com 1.10,2013-09-13 13:46:00,
2013-09-13 10:01:00,62.0,59.0,29.67,NNW,332,3.0,8.0,89,0.00,,,0.02,weatherlink.com 1.10,2013-09-13 14:01:00,
2013-09-13 10:16:00,62.8,58.0,29.67,NE,34,1.0,10.0,85,0.00,,,0.02,weatherlink.com 1.10,2013-09-13 14:16:00,
2013-09-13 10:31:00,63.4,59.0,29.66,NE,36,0.0,5.0,85,0.00,,,0.02,weatherlink.com 1.10,2013-09-13 14:31:00,
2013-09-13 10:46:00,63.5,58.0,29.66,NNW,348,1.0,5.0,83,0.00,,,0.02,weatherlink.com 1.10,2013-09-13 14:46:00,
2013-09-13 11:01:00,64.5,58.0,29.66,WNW,291,8.0,12.0,80,0.00,,,0.02,weatherlink.com 1.10,2013-09-13 15:01:00,
2013-09-13 11:16:00,63.8,58.0,29.67,NW,317,6.0,12.0,80,0.00,,,0.02,weatherlink.com 1.10,2013-09-13 15:16:00,
2013-09-13 11:31:00,63.8,58.0,29.67,NW,323,6.0,11.0,81,0.00,,,0.02,weatherlink.com 1.10,2013-09-13 15:31:00,
2013-09-13 11:46:00,63.4,57.0,29.68,NNE,24,2.0,8.0,79,0.00,,,0.02,weatherlink.com 1.10,2013-09-13 15:46:00,
2013-09-13 12:01:00,63.2,56.0,29.68,NW,314,1.0,11.0,78,0.00,,,0.02,weatherlink.com 1.10,2013-09-13 16:01:00,
2013-09-13 12:16:00,63.5,57.0,29.68,North,355,6.0,10.0,79,0.00,,,0.02,weatherlink.com 1.10,2013-09-13 16:16:00,
2013-09-13 12:31:00,63.2,57.0,29.69,North,355,3.0,9.0,79,0.00,,,0.02,weatherlink.com 1.10,2013-09-13 16:31:00,
2013-09-13 12:46:00,63.8,58.0,29.68,NNW,346,1.0,6.0,80,0.00,,,0.02,weatherlink.com 1.10,2013-09-13 16:46:00,
2013-09-13 13:01:00,64.0,56.0,29.68,WSW,256,7.0,13.0,76,0.00,,,0.02,weatherlink.com 1.10,2013-09-13 17:01:00,
2013-09-13 13:16:00,64.1,56.0,29.68,NNW,330,3.0,10.0,74,0.00,,,0.02,weatherlink.com 1.10,2013-09-13 17:16:00,
2013-09-13 13:31:00,63.6,55.0,29.68,WNW,290,8.0,13.0,74,0.00,,,0.02,weatherlink.com 1.10,2013-09-13 17:31:00,
2013-09-13 13:46:00,63.0,54.0,29.69,West,276,9.0,19.0,73,0.00,,,0.02,weatherlink.com 1.10,2013-09-13 17:46:00,
2013-09-13 14:01:00,63.2,55.0,29.68,NNW,337,11.0,12.0,74,0.00,,,0.02,weatherlink.com 1.10,2013-09-13 18:01:00,
2013-09-13 14:16:00,63.2,55.0,29.69,NW,310,1.0,10.0,75,0.00,,,0.02,weatherlink.com 1.10,2013-09-13 18:16:00,
2013-09-13 14:31:00,61.0,56.0,29.70,NW,317,6.0,12.0,82,0.01,,,0.03,weatherlink.com 1.10,2013-09-13 18:31:00,
2013-09-13 14:46:00,60.2,56.0,29.70,NNW,346,3.0,9.0,86,0.01,,,0.03,weatherlink.com 1.10,2013-09-13 18:46:00,
2013-09-13 15:01:00,60.5,56.0,29.71,North,5,3.0,6.0,85,0.01,,,0.03,weatherlink.com 1.10,2013-09-13 19:01:00,
2013-09-13 15:16:00,59.6,56.0,29.71,NNE,29,2.0,13.0,86,0.02,,,0.04,weatherlink.com 1.10,2013-09-13 19:16:00,
2013-09-13 15:31:00,59.7,56.0,29.71,NE,39,3.0,9.0,86,0.01,,,0.04,weatherlink.com 1.10,2013-09-13 19:31:00,
2013-09-13 15:46:00,59.5,55.0,29.71,North,355,2.0,11.0,85,0.01,,,0.04,weatherlink.com 1.10,2013-09-13 19:46:00,
2013-09-13 16:01:00,59.8,55.0,29.71,NW,308,1.0,8.0,83,0.01,,,0.04,weatherlink.com 1.10,2013-09-13 20:01:00,
2013-09-13 16:16:00,59.7,54.0,29.72,WSW,250,9.0,14.0,80,0.00,,,0.04,weatherlink.com 1.10,2013-09-13 20:16:00,
2013-09-13 16:46:00,58.9,52.0,29.74,NW,315,3.0,14.0,77,0.00,,,0.04,weatherlink.com 1.10,2013-09-13 20:46:00,
2013-09-13 17:01:00,58.2,52.0,29.74,WNW,292,11.0,18.0,79,0.00,,,0.04,weatherlink.com 1.10,2013-09-13 21:01:00,
2013-09-13 17:17:00,58.2,52.0,29.75,NE,34,4.0,16.0,80,0.00,,,0.04,weatherlink.com 1.10,2013-09-13 21:17:00,
2013-09-13 17:32:00,57.3,53.0,29.75,NNW,327,5.0,10.0,84,0.00,,,0.04,weatherlink.com 1.10,2013-09-13 21:32:00,
2013-09-13 17:47:00,57.5,52.0,29.76,NNW,338,3.0,9.0,82,0.00,,,0.04,weatherlink.com 1.10,2013-09-13 21:47:00,
2013-09-13 18:02:00,56.9,51.0,29.77,WNW,303,1.0,12.0,80,0.00,,,0.04,weatherlink.com 1.10,2013-09-13 22:02:00,
2013-09-13 18:17:00,56.6,51.0,29.78,NW,306,2.0,9.0,82,0.00,,,0.04,weatherlink.com 1.10,2013-09-13 22:17:00,
2013-09-13 18:47:00,55.2,51.0,29.80,NNE,19,2.0,9.0,86,0.00,,,0.04,weatherlink.com 1.10,2013-09-13 22:47:00,
2013-09-13 19:02:00,54.5,50.0,29.81,NW,308,3.0,8.0,86,0.00,,,0.04,weatherlink.com 1.10,2013-09-13 23:02:00,
2013-09-13 19:17:00,54.3,50.0,29.80,North,5,1.0,11.0,85,0.00,,,0.04,weatherlink.com 1.10,2013-09-13 23:17:00,
2013-09-13 19:32:00,54.1,50.0,29.80,NW,310,3.0,9.0,85,0.00,,,0.04,weatherlink.com 1.10,2013-09-13 23:32:00,
2013-09-13 19:47:00,53.9,50.0,29.81,NW,315,4.0,11.0,85,0.00,,,0.04,weatherlink.com 1.10,2013-09-13 23:47:00,
2013-09-13 20:02:00,53.8,49.0,29.82,West,266,1.0,9.0,85,0.00,,,0.04,weatherlink.com 1.10,2013-09-14 00:02:00,
2013-09-13 20:17:00,53.7,50.0,29.84,NNW,330,2.0,6.0,86,0.00,,,0.04,weatherlink.com 1.10,2013-09-14 00:17:00,
2013-09-13 20:32:00,53.6,50.0,29.84,WNW,284,1.0,5.0,87,0.00,,,0.04,weatherlink.com 1.10,2013-09-14 00:32:00,
2013-09-13 20:47:00,53.2,50.0,29.85,NNW,339,2.0,6.0,88,0.00,,,0.04,weatherlink.com 1.10,2013-09-14 00:47:00,
2013-09-13 21:02:00,52.3,49.0,29.86,NW,305,3.0,4.0,89,0.00,,,0.04,weatherlink.com 1.10,2013-09-14 01:02:00,
2013-09-13 21:17:00,52.1,49.0,29.86,NNW,334,2.0,13.0,89,0.00,,,0.04,weatherlink.com 1.10,2013-09-14 01:17:00,
2013-09-13 21:32:00,51.8,48.0,29.85,NE,44,3.0,10.0,88,0.00,,,0.04,weatherlink.com 1.10,2013-09-14 01:32:00,
2013-09-13 21:47:00,51.9,48.0,29.85,NE,37,1.0,8.0,87,0.00,,,0.04,weatherlink.com 1.10,2013-09-14 01:47:00,
2013-09-13 22:02:00,51.6,48.0,29.85,NW,305,2.0,8.0,87,0.00,,,0.04,weatherlink.com 1.10,2013-09-14 02:02:00,
2013-09-13 22:17:00,51.4,48.0,29.85,North,5,4.0,8.0,87,0.00,,,0.04,weatherlink.com 1.10,2013-09-14 02:17:00,
2013-09-13 22:32:00,51.4,48.0,29.85,ENE,71,0.0,10.0,88,0.00,,,0.04,weatherlink.com 1.10,2013-09-14 02:32:00,
2013-09-13 22:47:00,51.5,48.0,29.86,NNE,26,2.0,9.0,88,0.00,,,0.04,weatherlink.com 1.10,2013-09-14 02:47:00,
2013-09-13 23:03:00,51.4,48.0,29.86,ENE,78,3.0,10.0,88,0.00,,,0.04,weatherlink.com 1.10,2013-09-14 03:03:00,
2013-09-13 23:18:00,51.1,47.0,29.86,NNE,25,2.0,8.0,87,0.00,,,0.04,weatherlink.com 1.10,2013-09-14 03:18:00,
2013-09-13 23:33:00,51.0,47.0,29.86,NW,326,2.0,7.0,86,0.00,,,0.04,weatherlink.com 1.10,2013-09-14 03:33:00,
2013-09-13 23:48:00,51.0,47.0,29.86,SSE,149,3.0,10.0,86,0.00,,,0.04,weatherlink.com 1.10,2013-09-14 03:48:00,